Regional Weather Roundup
Issued by NWS Goodland, KS

Home | Current Version | Previous Version | Text Only | Print | Product List | Glossary On
Versions: 1 2 3 4 5 6 7 8 9 10 11 12 13 14 15 16 17 18 19 20 21 22 23 24 25 26 27 28 29 30 31 32 33 34 35 36 37 38 39 40 41 42 43 44 45 46 47 48 49 50
000
ASUS43 KGLD 310508
RWRGLD

GOODLAND FORECAST AREA HOURLY WEATHER ROUNDUP
NATIONAL WEATHER SERVICE GOODLAND KS
1100 PM MDT WED JUL 30 2014

...OFFICIAL OBSERVATIONS...

CITY           SKY/WX    TMP DP  RH WIND       PRES   REMARKS
GOODLAND KS    MOCLDY    62  59  90 NW5       30.25F
HILL CITY KS   MOCLDY    63  55  75 CALM      30.19R
IMPERIAL NEB   CLEAR     63  58  83 W7        30.23S
MCCOOK NEB     MOCLDY    64  59  83 W6        30.20R
AKRON CO       CLOUDY    58  56  93 W6        30.30F
BURLINGTON CO  CLOUDY    60  56  86 W5        30.29S
LIMON CO       CLOUDY    58  55  90 CALM      30.35F
$$

...UNOFFICIAL OBSERVATIONS...

CITY           SKY/WX    TMP DP  RH WIND       PRES   REMARKS
COLBY KS       CLEAR     63  63 100 NW6       30.24S
GOVE KS          N/A     63  32  31 MISG        N/A
NORTON KS      CLEAR     68  54  60 SE5       30.18R
OBERLIN KS     MOCLDY    64  55  72 W7        30.20R
SHARON SPRINGS   N/A     63  60  88 CALM        N/A
TRIBUNE KS     MOCLDY    61  54  77 SW3       30.27
TRENTON NEB      N/A     64  32  30 W8          N/A
KIT CARSON CO    N/A     61  57  85 CALM        N/A
WRAY CO          N/A     61  59  94 W3        30.27R
YUMA CO          N/A     59  55  88 W9          N/A
$$



USA.gov is the U.S. government's official web portal to all federal, state and local government web resources and services.